Satellite: CO-66
Catalog number: 32791
Epoch time:      11159.72095794
Element set:       0
Inclination:      097.8491 deg
RA of node:       223.6388 deg
Eccentricity:    0.0015340
Arg of perigee:   198.9911 deg
Mean anomaly:     161.0720 deg
Mean motion:   14.82123008 rev/day
Decay rate:       6.82e-06 rev/day^2
Epoch rev:           16825
Checksum:              309

Satellite: RS-30
Catalog number: 32953
Epoch time:      11159.53522138
Element set:     804
Inclination:      082.5002 deg
RA of node:       168.1014 deg
Eccentricity:    0.0020263
Arg of perigee:   048.6740 deg
Mean anomaly:     311.6081 deg
Mean motion:   12.43013453 rev/day
Decay rate:        1.0e-07 rev/day^2
Epoch rev:           13801
Checksum:              234

Satellite: TACSAT-3
Catalog number: 35001
Epoch time:      11159.54740688
Element set:     611
Inclination:      040.4531 deg
RA of node:       225.2247 deg
Eccentricity:    0.0021536
Arg of perigee:   146.8115 deg
Mean anomaly:     213.4058 deg
Mean motion:   15.48896945 rev/day
Decay rate:     1.8526e-04 rev/day^2
Epoch rev:           11574
Checksum:              293

Satellite: PHARMSAT
Catalog number: 35002
Epoch time:      11159.57671834
Element set:     568
Inclination:      040.4691 deg
RA of node:       222.7509 deg
Eccentricity:    0.0023561
Arg of perigee:   155.3625 deg
Mean anomaly:     204.8321 deg
Mean motion:   15.48508358 rev/day
Decay rate:     1.4843e-04 rev/day^2
Epoch rev:           11577
Checksum:              297

Satellite: HAWKSAT1
Catalog number: 35003
Epoch time:      11158.45809352
Element set:    0646
Inclination:      040.4533 deg
RA of node:       202.1373 deg
Eccentricity:    0.0020218
Arg of perigee:   167.4036 deg
Mean anomaly:     192.7297 deg
Mean motion:   15.64757653 rev/day
Decay rate:     7.3679e-04 rev/day^2
Epoch rev:           11590
Checksum:              298

Satellite: CP6
Catalog number: 35004
Epoch time:      11159.41172161
Element set:     648
Inclination:      040.4539 deg
RA of node:       187.9522 deg
Eccentricity:    0.0020665
Arg of perigee:   180.2978 deg
Mean anomaly:     179.7776 deg
Mean motion:   15.71373053 rev/day
Decay rate:    1.07909e-03 rev/day^2
Epoch rev:           11613
Checksum:              312

Satellite: METEOR-M
Catalog number: 35865
Epoch time:      11159.70678479
Element set:     440
Inclination:      098.7059 deg
RA of node:       214.9443 deg
Eccentricity:    0.0003424
Arg of perigee:   057.2120 deg
Mean anomaly:     302.9344 deg
Mean motion:   14.21839302 rev/day
Decay rate:       1.76e-06 rev/day^2
Epoch rev:            8938
Checksum:              305

Satellite: RS-38
Catalog number: 35869
Epoch time:      11159.70790274
Element set:     433
Inclination:      098.7026 deg
RA of node:       214.9817 deg
Eccentricity:    0.0005632
Arg of perigee:   057.4822 deg
Mean anomaly:     302.6866 deg
Mean motion:   14.22013220 rev/day
Decay rate:       1.77e-06 rev/day^2
Epoch rev:            8939
Checksum:              315

/EX


_______________________________________________
Via the Keps mailing list courtesy of AMSAT-NA
http://amsat.org/mailman/listinfo/keps

--- ViaMAIL!/WC v1.60d
 * Origin: Chowdanet (401-724-4410) telnet://chowdanet.com  (1:323/120)